Temp
60 60 61 61 61 61 61 61 62 62 61 60 60 61 61 61 61 60 60 60 62 63 63 63 64 64 65 65 65 65 65 66 66 66 67 67 67 67 67 66 66 66 66 67 66 66 66 65 64 64 63 63 62 62 62 63 63 62 62 63 64 64
59 60 60 59 59 59 59 60 60 60 59 58 57 57 57 58 59 59 60 61 60 62 61 61 62 63 63 63 64 65 64 65 65 66 66 67 66 66 66 66 66 65 65 65 65 65 64 64 64 64 63 63 62 62 61 62 62 62 62 63 64 63
60 59 58 58 59 59 60 60 59 57 56 56 56 57 58 58 59 58 59 59 59 58 60 61 60 61 62 62 63 63 64 65 64 65 66 64 65 65 65 65 66 65 64 64 63 64 64 64 64 64 63 62 62 61 61 61 61 61 62 63 63 63
58 58 57 56 59 58 58 56 55 55 55 56 56 56 57 58 59 58 59 57 58 58 60 60 59 60 60 60 61 61 63 63 64 64 62 63 64 63 65 65 65 64 64 63 64 64 64 64 64 64 63 62 61 61 61 61 60 61 62 62 61 62
56 56 56 57 58 57 56 55 56 56 55 55 55 56 57 58 58 58 57 58 58 59 59 58 58 57 57 58 59 60 61 61 61 61 61 62 63 62 63 64 63 64 63 63 63 63 63 63 63 63 63 62 61 60 60 61 60 60 60 60 61 61
55 55 54 56 55 54 56 56 56 57 56 57 56 56 57 57 57 57 56 56 57 57 57 57 56 56 56 56 58 57 58 59 59 58 59 61 60 61 61 61 63 62 62 62 61 61 62 62 62 62 62 62 61 60 60 60 60 61 60 60 60 60
54 55 54 54 55 54 55 56 56 57 57 56 56 57 57 57 57 56 56 55 56 55 55 54 53 54 54 55 56 56 56 56 57 57 58 59 59 60 60 60 59 60 60 62 61 61 61 61 61 61 61 62 61 61 60 60 60 60 60 60 60 55
58 59 59 60 60 60 58 58 57 57 57 58 58 57 56 56 55 54 55 54 54 54 53 53 51 52 53 54 53 54 55 56 56 57 57 57 59 59 58 59 59 60 60 60 61 61 60 60 60 60 61 61 60 60 60 59 59 59 60 60 60 60
60 61 61 61 61 59 59 58 59 59 58 57 57 57 57 56 54 52 52 52 52 52 52 52 52 53 52 51 52 52 52 53 53 53 55 54 55 57 57 56 57 56 58 59 59 60 60 60 59 60 60 60 60 60 59 58 58 58 59 59 59 59
60 60 61 61 61 62 61 61 61 59 58 59 57 54 54 56 52 51 52 51 51 51 52 52 52 51 51 51 50 50 50 51 51 52 53 50 54 54 55 56 56 56 54 58 58 59 59 59 59 59 60 60 60 59 58 58 57 58 58 58 58 58
58 59 60 60 60 60 61 61 60 56 53 51 52 52 53 53 51 52 52 52 51 52 52 51 51 51 50 49 48 48 49 50 50 50 50 50 51 53 53 54 55 54 54 55 55 56 57 58 59 59 59 58 59 59 59 58 58 57 57 57 56 56
58 59 60 59 59 59 59 58 57 56 55 55 52 51 53 51 53 53 52 51 52 52 51 50 49 50 49 48 48 48 48 48 48 48 48 48 49 49 49 50 52 53 54 54 54 54 55 57 59 53 51 52 58 58 59 58 57 56 56 55 55 54
58 58 58 59 59 58 58 58 57 54 53 52 53 54 52 51 52 50 50 51 52 52 50 49 49 48 48 49 48 48 47 48 47 46 46 46 47 48 48 47 50 51 51 52 53 53 53 55 55 48 49 50 50 55 57 56 56 56 55 54 54 54
57 57 57 57 57 57 54 53 51 49 51 53 53 54 53 54 54 52 52 52 52 51 49 48 47 46 48 47 48 48 47 45 44 44 44 43 43 44 42 45 48 49 50 51 51 51 52 53 48 48 47 47 48 49 54 56 55 55 54 54 53 53
50 51 52 51 54 53 54 55 54 53 53 50 50 51 52 53 54 54 53 53 51 51 51 47 47 47 48 48 48 48 46 44 43 43 43 43 42 39 42 45 45 46 47 48 49 50 50 51 48 47 47 45 45 46 50 55 55 53 53 53 52 52
55 55 54 54 53 52 52 51 51 51 49 50 49 50 51 52 53 52 52 52 53 53 50 46 46 48 49 49 47 46 45 43 44 43 41 38 37 40 42 40 41 43 45 46 48 48 49 50 47 46 46 46 45 45 47 54 53 52 52 51 51 51
50 49 48 48 48 48 48 50 50 51 53 53 53 52 52 51 50 51 52 52 52 51 47 47 46 48 49 48 46 45 44 44 44 42 41 40 40 40 40 40 39 41 42 43 45 46 47 48 45 45 45 45 45 45 45 51 51 50 50 50 50 50
44 44 45 46 46 47 47 47 48 48 49 50 51 51 50 49 49 49 48 48 49 49 47 46 46 47 47 47 45 44 45 45 44 44 42 39 38 38 37 38 38 39 40 41 42 43 44 46 44 43 43 44 45 45 47 49 49 49 49 48 48 48
42 43 43 43 44 45 45 45 45 45 45 46 47 48 47 47 48 48 48 48 47 47 47 47 47 47 47 45 44 44 44 45 45 43 42 40 40 39 38 39 39 39 39 39 40 41 43 43 43 42 42 43 44 44 47 47 47 47 47 46 45 45
40 40 40 41 41 41 41 40 40 40 41 42 43 44 44 44 45 45 44 45 45 46 46 46 45 46 46 44 44 44 44 44 43 43 42 41 41 40 40 39 39 39 39 40 41 41 42 43 42 40 41 42 43 43 46 46 46 45 45 43 42 43
36 36 37 38 37 36 36 36 37 37 37 38 39 40 41 41 39 37 38 39 41 43 44 45 44 44 44 44 45 44 43 43 44 43 41 41 41 41 41 39 39 39 39 40 41 38 41 42 41 39 40 41 42 42 45 45 44 44 43 42 40 39
33 33 34 35 33 33 33 34 34 33 34 36 37 37 37 35 34 35 36 38 39 41 42 43 42 42 42 43 43 43 43 42 42 41 40 39 39 40 40 38 39 39 40 40 40 41 41 41 42 38 39 40 41 41 43 43 43 43 43 41 39 37
31 32 32 33 31 30 31 31 30 30 31 32 32 32 33 33 33 33 34 36 37 38 39 40 40 41 41 41 41 42 41 40 40 39 38 39 38 37 38 38 38 38 39 39 39 40 41 42 42 38 38 39 40 41 41 41 43 44 42 38 37 37
29 29 29 30 29 29 28 28 27 28 29 29 29 30 31 31 30 32 33 34 35 35 36 37 38 39 40 40 39 38 40 39 38 38 37 36 37 37 37 37 37 37 38 38 36 38 40 40 38 38 36 38 39 40 41 39 39 40 39 38 37 37
27 27 27 28 27 27 27 27 26 26 27 26 27 29 29 29 30 31 32 33 33 34 35 35 36 36 38 37 37 36 37 37 36 36 36 36 36 36 36 37 36 36 36 35 33 34 35 34 36 35 36 37 38 39 40 40 39 40 38 39 37 37
25 25 25 26 26 26 26 25 24 24 24 24 27 26 27 27 28 30 31 32 33 34 34 34 35 35 35 35 35 35 35 35 34 35 35 34 35 35 36 35 35 34 34 34 32 32 31 31 31 34 34 35 37 38 38 38 39 38 36 36 36 34
22 23 23 24 25 25 25 24 22 21 20 22 24 23 23 25 26 27 29 32 33 33 34 33 33 34 33 33 33 34 34 33 33 34 33 33 33 33 34 33 33 34 33 32 33 31 30 30 30 31 33 34 34 37 38 38 38 39 38 34 33 33
21 21 20 22 24 23 23 23 22 19 20 21 21 21 22 22 24 27 30 33 34 34 34 33 33 33 32 32 32 32 32 33 33 33 32 32 32 32 33 32 33 32 31 31 31 29 29 31 32 32 33 33 33 34 36 37 36 35 34 34 33 34
19 19 19 19 22 22 21 21 21 21 20 19 19 19 20 21 24 28 32 33 34 34 34 34 33 33 32 30 29 29 30 30 30 30 29 29 29 30 31 33 32 32 32 32 29 29 30 31 32 32 32 32 31 30 30 31 32 33 33 32 32 33
18 18 17 18 20 20 19 19 19 19 18 17 17 17 18 21 25 28 31 31 32 32 33 34 33 33 31 30 29 29 29 30 31 29 28 28 28 28 29 30 31 31 32 30 30 30 30 30 32 32 32 31 31 30 30 31 31 31 31 31 31 32
16 16 16 16 18 17 17 17 18 18 16 16 16 16 17 20 23 27 30 30 31 30 32 33 33 32 31 30 29 28 29 28 29 30 29 31 31 29 29 29 29 29 30 31 31 31 29 30 30 31 32 31 33 31 30 31 31 32 31 32 33 32
15 15 15 16 16 15 15 16 16 16 15 15 15 15 16 18 21 25 26 27 28 29 30 30 31 31 31 30 29 28 28 30 31 31 29 29 31 32 33 33 29 30 30 30 30 32 30 29 31 34 34 34 34 34 34 34 34 34 33 34 35 33
16 14 13 15 15 13 13 14 14 14 14 14 14 15 16 17 19 21 22 23 24 26 27 28 27 28 29 29 29 28 27 26 28 30 31 31 31 32 32 33 33 33 33 32 30 32 34 34 34 34 34 34 34 34 34 35 35 35 35 35 33 32
14 14 14 15 13 12 12 12 12 12 12 12 12 14 15 16 17 18 19 20 21 24 25 25 25 25 25 26 28 28 27 26 25 26 29 30 30 31 32 32 33 33 33 32 32 30 30 32 33 33 33 33 33 33 34 34 35 35 35 35 35 31
15 15 14 13 13 12 12 11 11 11 10 10 11 12 13 15 16 16 18 19 19 20 22 23 23 23 24 24 24 24 25 25 25 23 24 27 29 29 29 30 31 32 32 32 32 32 31 31 32 33 33 32 33 33 33 34 35 35 35 35 32 30
14 13 13 12 11 11 11 10 11 10 9 9 9 10 12 14 15 16 17 18 18 18 19 20 20 21 22 23 23 23 23 24 24 24 24 24 24 24 26 27 28 29 30 31 31 31 31 31 31 32 32 32 33 33 33 33 33 35 35 33 30 30
13 12 12 12 11 10 10 9 10 9 9 9 9 9 11 12 13 15 16 17 18 17 18 18 19 19 19 20 21 21 22 22 22 23 22 21 20 20 19 20 22 25 28 28 29 30 31 31 31 31 31 32 32 33 33 33 29 28 28 29 29 28
13 11 11 11 10 9 9 9 10 9 9 8 8 8 10 11 12 13 14 14 15 16 16 17 17 18 18 18 19 20 21 21 21 21 21 21 21 20 19 19 20 21 24 25 26 29 30 30 30 30 30 30 31 31 31 26 25 26 25 24 23 23
MSLP
1003.58 1003.46 1003.50 1003.62 1003.70 1003.70 1003.78 1003.86 1003.86 1003.90 1003.90 1003.94 1003.94 1003.98 1003.86 1003.86 1003.86 1003.82 1003.82 1003.82 1003.86 1003.86 1003.82 1003.82 1003.82 1003.86 1003.86 1003.82 1003.82 1003.82 1003.90 1003.86 1003.82 1003.74 1003.58 1003.50 1003.46 1003.42 1003.38 1003.42 1003.38 1003.38 1003.38 1003.46 1003.58 1003.74 1003.90 1004.14 1004.42 1004.70 1005.02 1005.30 1005.54 1005.66 1005.78 1005.82 1005.98 1006.10 1006.22 1006.22 1006.42 1006.50
1003.54 1003.74 1003.90 1004.02 1004.10 1004.10 1004.06 1004.02 1003.98 1004.02 1003.94 1003.94 1003.94 1003.94 1003.90 1003.82 1003.78 1003.78 1003.78 1003.70 1003.74 1003.66 1003.62 1003.58 1003.54 1003.54 1003.58 1003.54 1003.54 1003.58 1003.54 1003.42 1003.42 1003.34 1003.30 1003.18 1003.10 1003.06 1003.06 1003.14 1003.02 1003.06 1003.10 1003.10 1003.18 1003.34 1003.54 1003.78 1003.98 1004.22 1004.50 1004.78 1004.90 1005.06 1005.30 1005.34 1005.50 1005.66 1005.74 1005.82 1005.90 1006.02
1004.34 1004.30 1004.18 1004.10 1004.02 1004.06 1004.06 1004.06 1004.10 1004.02 1004.02 1004.02 1003.98 1003.98 1003.86 1003.78 1003.66 1003.66 1003.62 1003.58 1003.62 1003.58 1003.50 1003.38 1003.34 1003.30 1003.26 1003.22 1003.18 1003.22 1003.10 1003.02 1002.94 1002.86 1002.78 1002.78 1002.78 1002.78 1002.82 1002.74 1002.70 1002.70 1002.70 1002.78 1002.86 1002.98 1003.14 1003.30 1003.54 1003.66 1003.90 1004.14 1004.30 1004.50 1004.70 1004.90 1005.06 1005.14 1005.18 1005.30 1005.42 1005.50
1004.46 1004.34 1004.26 1004.26 1004.30 1004.26 1004.22 1004.06 1004.02 1004.02 1003.98 1003.86 1003.82 1003.82 1003.74 1003.58 1003.46 1003.42 1003.34 1003.34 1003.30 1003.30 1003.22 1003.10 1003.02 1002.98 1002.94 1002.98 1002.94 1002.94 1002.82 1002.74 1002.62 1002.50 1002.54 1002.58 1002.42 1002.50 1002.42 1002.38 1002.34 1002.30 1002.30 1002.38 1002.42 1002.54 1002.62 1002.70 1002.86 1003.06 1003.30 1003.54 1003.82 1004.02 1004.18 1004.42 1004.54 1004.62 1004.62 1004.78 1004.90 1004.94
1004.50 1004.50 1004.54 1004.50 1004.46 1004.30 1004.18 1004.02 1003.90 1003.78 1003.70 1003.66 1003.66 1003.66 1003.46 1003.30 1003.14 1003.02 1003.06 1003.06 1002.98 1002.90 1002.82 1002.82 1002.78 1002.74 1002.78 1002.78 1002.74 1002.70 1002.58 1002.54 1002.46 1002.42 1002.46 1002.34 1002.26 1002.18 1002.06 1002.02 1002.02 1001.98 1002.02 1002.10 1002.14 1002.26 1002.34 1002.38 1002.50 1002.66 1002.86 1003.02 1003.26 1003.46 1003.62 1003.70 1003.86 1003.98 1004.10 1004.26 1004.22 1004.34
1004.58 1004.66 1004.66 1004.58 1004.38 1004.22 1004.06 1003.86 1003.70 1003.54 1003.42 1003.34 1003.38 1003.38 1003.10 1002.98 1002.90 1002.74 1002.74 1002.74 1002.70 1002.58 1002.58 1002.58 1002.50 1002.58 1002.54 1002.54 1002.42 1002.46 1002.34 1002.30 1002.22 1002.14 1002.10 1001.98 1001.94 1001.86 1001.74 1001.66 1001.62 1001.70 1001.74 1001.82 1001.90 1001.98 1002.02 1002.10 1002.18 1002.26 1002.34 1002.46 1002.66 1002.82 1002.98 1003.14 1003.30 1003.34 1003.46 1003.54 1003.62 1003.82
1004.62 1004.62 1004.46 1004.26 1004.02 1003.78 1003.62 1003.46 1003.30 1003.18 1003.06 1003.02 1003.02 1002.90 1002.70 1002.62 1002.50 1002.50 1002.42 1002.42 1002.42 1002.34 1002.38 1002.30 1002.30 1002.34 1002.26 1002.22 1002.14 1002.10 1002.06 1002.02 1001.90 1001.78 1001.66 1001.62 1001.58 1001.46 1001.38 1001.30 1001.26 1001.30 1001.30 1001.34 1001.38 1001.54 1001.62 1001.70 1001.86 1001.98 1002.02 1002.02 1002.10 1002.26 1002.42 1002.58 1002.70 1002.78 1002.86 1002.98 1003.10 1003.30
1004.26 1004.06 1003.82 1003.62 1003.42 1003.26 1003.06 1002.94 1002.90 1002.82 1002.70 1002.54 1002.42 1002.34 1002.26 1002.18 1002.18 1002.18 1002.18 1002.22 1002.26 1002.14 1002.10 1002.06 1002.10 1002.06 1001.94 1001.86 1001.82 1001.78 1001.74 1001.74 1001.66 1001.50 1001.30 1001.22 1001.18 1001.10 1001.06 1000.98 1000.94 1000.86 1000.82 1000.82 1000.90 1001.02 1001.14 1001.30 1001.42 1001.50 1001.58 1001.66 1001.78 1001.86 1001.90 1002.02 1002.14 1002.22 1002.34 1002.50 1002.62 1002.78
1003.34 1003.14 1003.10 1003.02 1002.90 1002.86 1002.78 1002.70 1002.54 1002.34 1002.26 1002.14 1001.98 1001.86 1001.78 1001.70 1001.82 1001.90 1001.94 1001.98 1001.98 1001.90 1001.82 1001.78 1001.70 1001.66 1001.62 1001.54 1001.46 1001.46 1001.46 1001.42 1001.38 1001.30 1001.06 1000.90 1000.82 1000.82 1000.78 1000.70 1000.62 1000.54 1000.54 1000.46 1000.54 1000.58 1000.62 1000.74 1000.86 1000.98 1001.10 1001.22 1001.34 1001.42 1001.54 1001.62 1001.74 1001.82 1001.90 1001.98 1002.10 1002.26
1003.38 1003.22 1002.98 1002.82 1002.70 1002.42 1002.30 1002.22 1002.14 1002.06 1001.94 1001.70 1001.50 1001.54 1001.58 1001.58 1001.62 1001.62 1001.62 1001.66 1001.62 1001.54 1001.34 1001.34 1001.30 1001.26 1001.30 1001.26 1001.26 1001.22 1001.14 1001.14 1001.06 1000.98 1000.86 1000.74 1000.62 1000.50 1000.42 1000.38 1000.34 1000.26 1000.30 1000.22 1000.18 1000.14 1000.18 1000.26 1000.34 1000.38 1000.46 1000.62 1000.74 1000.86 1000.98 1001.06 1001.18 1001.34 1001.46 1001.54 1001.74 1001.90
1003.70 1003.30 1003.06 1002.82 1002.58 1002.42 1002.18 1001.94 1001.74 1001.66 1001.66 1001.62 1001.50 1001.46 1001.42 1001.38 1001.46 1001.42 1001.34 1001.30 1001.26 1000.98 1000.86 1000.90 1000.98 1001.02 1001.02 1001.02 1000.98 1000.90 1000.82 1000.78 1000.74 1000.70 1000.62 1000.50 1000.42 1000.34 1000.18 1000.10 1000.10 1000.06 1000.02 999.98 999.90 999.86 999.90 999.94 999.86 999.82 999.90 1000.02 1000.10 1000.18 1000.34 1000.46 1000.66 1000.86 1001.06 1001.26 1001.46 1001.62
1003.30 1002.98 1002.70 1002.46 1002.42 1002.18 1002.06 1001.90 1001.70 1001.50 1001.42 1001.38 1001.34 1001.30 1001.14 1001.10 1001.14 1001.06 1001.02 1000.98 1000.74 1000.50 1000.54 1000.58 1000.66 1000.66 1000.66 1000.62 1000.50 1000.38 1000.38 1000.38 1000.34 1000.34 1000.34 1000.22 1000.18 1000.18 1000.14 1000.14 1000.02 999.90 999.78 999.74 999.74 999.66 999.66 999.54 999.38 999.34 999.42 999.50 999.62 999.78 999.90 1000.06 1000.26 1000.46 1000.70 1000.98 1001.22 1001.34
1002.66 1002.50 1002.30 1002.02 1001.74 1001.66 1001.62 1001.50 1001.42 1001.34 1001.34 1001.22 1001.14 1001.10 1001.14 1001.18 1001.02 1000.86 1000.66 1000.38 1000.18 1000.18 1000.30 1000.46 1000.42 1000.42 1000.30 1000.06 999.98 999.98 999.98 999.94 999.94 999.98 999.98 999.98 999.98 999.94 1000.02 1000.14 999.98 999.74 999.66 999.58 999.42 999.38 999.30 999.14 999.02 998.98 999.10 999.14 999.22 999.38 999.54 999.66 999.86 1000.14 1000.42 1000.62 1000.78 1000.90
1002.02 1001.90 1001.82 1001.66 1001.42 1001.26 1001.34 1001.42 1001.34 1001.34 1001.26 1001.10 1001.02 1000.82 1000.62 1000.38 1000.18 1000.02 999.94 999.86 999.86 999.98 1000.10 1000.10 1000.10 1000.06 999.86 999.78 999.70 999.58 999.58 999.70 999.74 999.70 999.66 999.78 999.82 999.82 1000.02 999.98 999.74 999.66 999.50 999.34 999.34 999.22 998.98 998.78 998.62 998.70 998.82 998.82 998.90 998.98 999.10 999.34 999.58 999.82 1000.02 1000.18 1000.38 1000.50
1002.02 1001.90 1001.82 1001.70 1001.50 1001.34 1001.18 1001.10 1001.14 1001.18 1001.14 1001.10 1001.02 1000.86 1000.62 1000.38 1000.18 999.98 999.82 999.74 999.74 999.74 999.70 999.70 999.70 999.66 999.54 999.42 999.26 999.26 999.34 999.46 999.50 999.50 999.58 999.50 999.54 999.82 999.82 999.54 999.62 999.50 999.38 999.46 999.22 998.94 998.78 998.66 998.42 998.58 998.58 998.70 998.78 998.82 998.82 998.94 999.14 999.46 999.62 999.78 999.98 1000.14
1001.74 1001.62 1001.54 1001.46 1001.42 1001.42 1001.34 1001.22 1001.18 1001.14 1001.14 1001.14 1000.90 1000.74 1000.62 1000.54 1000.34 1000.14 999.98 999.70 999.46 999.30 999.34 999.42 999.42 999.22 999.06 998.98 999.02 999.14 999.18 999.22 999.10 999.06 999.30 999.46 999.62 999.62 999.46 999.42 999.46 999.34 999.34 999.26 999.14 998.82 998.58 998.42 998.22 998.46 998.46 998.50 998.58 998.66 998.74 998.58 998.86 999.06 999.26 999.46 999.62 999.78
1002.22 1002.30 1002.30 1002.26 1002.26 1002.14 1002.02 1001.90 1001.78 1001.50 1001.06 1000.78 1000.74 1000.70 1000.62 1000.54 1000.38 1000.14 999.86 999.58 999.34 999.30 999.26 999.22 999.06 998.94 998.82 998.78 998.86 998.86 998.78 998.74 998.70 998.82 998.94 999.14 999.14 999.14 999.06 999.06 999.18 999.10 999.18 999.22 999.18 999.02 998.62 998.14 998.14 998.38 998.30 998.22 998.22 998.34 998.62 998.58 998.70 998.86 998.98 999.10 999.22 999.34
1003.58 1003.62 1003.54 1003.34 1003.10 1002.90 1002.70 1002.58 1002.34 1002.14 1001.86 1001.50 1001.26 1001.02 1000.86 1000.70 1000.46 1000.22 1000.02 999.82 999.58 999.30 999.18 999.06 998.94 998.82 998.78 998.70 998.70 998.66 998.50 998.42 998.38 998.18 998.14 998.38 998.50 998.62 998.78 998.78 998.86 998.78 998.82 998.82 998.94 998.90 998.42 997.78 997.90 998.06 998.10 998.22 998.26 998.26 998.38 998.38 998.42 998.46 998.54 998.70 998.78 998.94
1004.62 1004.42 1004.14 1003.78 1003.46 1003.30 1003.26 1003.22 1003.18 1003.02 1002.70 1002.34 1001.90 1001.66 1001.42 1001.14 1000.86 1000.50 1000.14 999.94 999.82 999.70 999.50 999.26 999.06 998.86 998.70 998.66 998.62 998.50 998.34 998.22 998.06 998.06 998.22 998.26 998.18 998.14 998.22 998.06 998.18 998.22 998.26 998.34 998.50 998.54 998.14 997.74 997.78 997.98 997.98 998.06 998.26 998.46 998.10 997.94 998.06 998.18 998.26 998.30 998.50 998.70
1005.18 1004.82 1004.58 1004.34 1004.18 1004.30 1004.50 1004.50 1004.42 1004.06 1003.58 1003.14 1002.74 1002.42 1002.06 1001.74 1001.30 1001.18 1001.26 1001.10 1000.82 1000.58 1000.30 999.98 999.58 999.10 998.70 998.58 998.42 998.22 998.10 998.06 997.98 997.82 997.82 997.86 997.66 997.66 997.74 997.78 997.86 997.82 997.82 997.86 997.74 997.74 997.74 997.34 997.34 997.66 997.74 997.86 998.02 998.14 997.94 997.74 997.78 997.82 997.94 998.14 998.46 998.58
1005.98 1005.66 1005.22 1005.10 1004.98 1005.50 1005.50 1005.26 1004.98 1004.66 1004.30 1003.82 1003.38 1003.02 1002.58 1002.26 1002.70 1002.86 1002.58 1002.06 1001.54 1001.10 1000.70 1000.38 1000.02 999.66 999.14 998.70 998.34 998.14 997.94 997.78 997.62 997.42 997.50 997.50 997.46 997.26 997.22 997.38 997.38 997.22 997.26 997.26 997.18 997.22 997.22 996.90 996.98 997.30 997.42 997.62 997.78 998.06 998.02 997.74 997.58 997.62 997.74 997.94 998.30 998.58
1006.58 1006.22 1006.02 1005.90 1006.30 1006.50 1006.18 1005.94 1005.70 1005.58 1005.10 1004.50 1004.14 1003.70 1003.46 1003.70 1003.78 1003.46 1003.02 1002.38 1001.74 1001.26 1000.90 1000.54 1000.14 999.70 999.30 998.82 998.38 998.14 997.90 997.66 997.46 997.34 997.26 997.18 997.18 997.06 997.02 997.02 996.98 996.82 996.66 996.74 996.86 996.86 996.86 996.74 996.46 996.74 997.06 997.26 997.46 997.58 997.70 997.74 997.50 997.22 997.30 997.82 998.18 998.62
1007.34 1007.06 1006.98 1006.90 1007.06 1007.18 1006.98 1006.66 1006.54 1006.26 1005.86 1005.54 1005.22 1004.94 1004.74 1004.58 1004.34 1003.82 1003.18 1002.54 1001.94 1001.46 1001.02 1000.70 1000.38 999.94 999.42 999.10 998.70 998.26 997.86 997.66 997.46 997.26 997.10 996.94 996.94 996.94 996.82 996.70 996.70 996.62 996.38 996.42 996.46 996.50 996.50 996.50 996.34 996.26 996.54 996.90 997.10 997.26 997.30 997.34 997.22 997.10 997.42 997.90 998.42 998.58
1008.06 1007.82 1007.74 1007.62 1007.66 1007.66 1007.50 1007.30 1007.18 1006.78 1006.46 1006.18 1006.02 1005.78 1005.46 1005.18 1004.74 1004.14 1003.50 1002.82 1002.22 1001.70 1001.26 1000.86 1000.38 1000.10 999.66 999.14 998.86 998.46 997.86 997.62 997.58 997.30 997.06 996.94 996.86 996.70 996.54 996.42 996.46 996.46 996.30 996.26 996.26 996.26 996.26 996.30 996.30 996.26 996.30 996.58 996.86 997.06 997.10 997.10 997.06 997.06 997.30 997.82 998.22 998.58
1008.82 1008.74 1008.58 1008.26 1008.10 1007.98 1007.82 1007.58 1007.46 1007.14 1006.90 1006.78 1006.46 1006.02 1005.74 1005.34 1004.78 1004.18 1003.58 1002.98 1002.30 1001.66 1001.14 1000.70 1000.38 1000.06 999.70 999.26 998.94 998.62 998.14 997.82 997.66 997.34 997.10 996.90 996.70 996.58 996.46 996.30 996.30 996.30 996.22 996.18 996.26 996.38 996.42 996.50 996.58 996.62 996.50 996.38 996.66 996.94 997.06 997.10 997.10 997.10 997.26 997.46 997.78 998.14
1009.34 1009.38 1009.30 1008.94 1008.74 1008.54 1008.26 1008.06 1007.98 1007.74 1007.50 1007.34 1006.86 1006.50 1006.06 1005.46 1004.94 1004.34 1003.66 1002.98 1002.18 1001.30 1000.66 1000.30 1000.10 999.94 999.70 999.38 999.02 998.66 998.34 997.98 997.78 997.50 997.18 996.90 996.74 996.62 996.50 996.42 996.38 996.34 996.22 996.22 996.38 996.58 996.78 996.90 997.02 997.10 997.06 996.90 996.54 996.82 997.06 997.22 997.22 997.18 997.30 997.50 997.78 998.14
1009.86 1009.78 1009.82 1009.46 1009.26 1009.18 1008.94 1008.74 1008.58 1008.38 1008.10 1007.74 1007.34 1007.06 1006.46 1005.86 1005.18 1004.50 1003.70 1002.94 1002.18 1001.34 1000.50 1000.02 999.86 999.74 999.54 999.34 999.10 998.74 998.42 998.14 997.86 997.54 997.26 996.98 996.86 996.74 996.66 996.54 996.50 996.34 996.26 996.30 996.38 996.66 996.98 997.18 997.38 997.54 997.58 997.54 997.30 996.90 996.98 997.18 997.26 997.34 997.46 997.70 997.94 997.98
1010.10 1010.10 1010.14 1009.90 1009.58 1009.66 1009.50 1009.26 1009.02 1008.94 1008.66 1008.26 1007.98 1007.46 1006.90 1006.18 1005.34 1004.42 1003.38 1002.58 1002.14 1001.62 1000.74 1000.06 999.74 999.66 999.70 999.78 999.70 999.54 999.30 998.86 998.22 997.78 997.50 997.22 997.02 996.86 996.78 996.70 996.58 996.46 996.38 996.34 996.46 996.86 997.22 997.50 997.62 997.74 997.82 997.90 997.94 997.74 997.46 997.34 997.38 997.50 997.74 998.06 998.38 998.38
1010.38 1010.34 1010.38 1010.30 1009.78 1009.90 1009.90 1009.70 1009.46 1009.30 1009.06 1008.74 1008.34 1007.82 1007.22 1006.38 1005.22 1004.14 1003.06 1002.54 1002.22 1001.70 1001.22 1000.58 1000.10 999.94 1000.22 1000.50 1000.42 1000.26 1000.06 999.78 999.42 998.98 998.70 998.66 998.18 997.54 996.98 996.66 996.54 996.46 996.38 996.30 996.62 997.14 997.50 997.70 997.82 997.90 997.94 998.10 998.30 998.38 998.02 997.70 997.86 998.02 998.22 998.70 998.98 999.06
1010.82 1010.74 1010.66 1010.50 1010.14 1010.34 1010.34 1010.06 1009.82 1009.58 1009.42 1009.10 1008.66 1008.14 1007.42 1006.38 1005.18 1004.14 1003.26 1002.94 1002.50 1002.18 1001.62 1001.10 1000.70 1000.42 1000.54 1000.82 1000.86 1000.74 1000.50 1000.22 999.94 999.86 999.78 999.50 999.22 998.62 997.54 996.90 996.54 996.46 996.34 996.62 997.14 997.42 997.58 997.82 998.02 998.18 998.26 998.34 998.38 998.54 998.58 998.30 998.18 998.34 998.62 998.90 999.14 999.30
1011.18 1011.02 1011.02 1010.86 1010.66 1010.86 1010.70 1010.42 1010.10 1009.90 1009.70 1009.42 1008.94 1008.42 1007.74 1006.70 1005.66 1004.46 1003.66 1003.30 1002.90 1002.62 1002.10 1001.66 1001.30 1000.98 1000.90 1001.10 1001.26 1001.26 1001.14 1000.94 1000.58 1000.34 1000.06 999.70 999.34 998.90 998.26 997.54 997.34 997.46 997.22 997.22 997.34 997.42 997.86 998.06 998.18 998.34 998.34 998.46 998.50 998.50 998.54 998.50 998.38 998.38 998.66 998.98 999.14 999.46
1011.58 1011.26 1011.14 1010.98 1010.98 1011.18 1011.06 1010.74 1010.46 1010.26 1010.10 1009.78 1009.30 1008.74 1008.10 1007.22 1006.22 1005.18 1004.62 1004.06 1003.66 1003.26 1002.82 1002.34 1001.94 1001.54 1001.34 1001.30 1001.38 1001.46 1001.46 1001.26 1001.02 1000.74 1000.46 1000.10 999.58 999.06 998.54 998.10 998.06 998.06 997.94 997.98 998.14 997.94 998.14 998.42 998.54 998.42 998.50 998.66 998.74 998.78 998.74 998.74 998.66 998.54 998.50 998.66 999.02 999.34
1011.86 1011.54 1011.30 1011.18 1011.26 1011.46 1011.38 1011.26 1010.98 1010.70 1010.46 1010.14 1009.74 1009.18 1008.50 1007.74 1006.94 1006.14 1005.62 1005.18 1004.70 1004.18 1003.74 1003.30 1002.94 1002.46 1001.98 1001.66 1001.54 1001.50 1001.58 1001.62 1001.46 1001.22 1000.82 1000.42 999.98 999.54 999.18 998.86 998.62 998.38 998.22 998.06 998.42 998.58 998.50 998.58 998.66 998.62 998.66 998.86 999.10 999.14 999.10 999.02 998.90 998.86 998.86 998.82 998.90 999.42
1012.26 1011.98 1011.70 1011.54 1011.54 1011.58 1011.58 1011.54 1011.38 1011.26 1011.02 1010.62 1010.14 1009.54 1008.86 1008.22 1007.66 1007.10 1006.50 1006.14 1005.78 1005.10 1004.58 1004.22 1003.82 1003.38 1002.98 1002.58 1002.06 1001.70 1001.54 1001.58 1001.78 1001.70 1001.38 1001.06 1000.54 1000.10 999.82 999.58 999.38 999.18 999.02 998.82 998.70 998.78 999.06 999.02 998.94 998.94 998.94 998.90 999.10 999.34 999.38 999.34 999.30 999.30 999.22 999.22 999.02 999.42
1012.78 1012.50 1012.26 1012.10 1011.94 1011.86 1011.82 1011.82 1011.66 1011.58 1011.42 1011.06 1010.54 1009.98 1009.22 1008.66 1008.18 1007.66 1007.10 1006.74 1006.42 1005.98 1005.50 1005.02 1004.58 1004.14 1003.70 1003.42 1003.02 1002.74 1002.50 1002.26 1001.98 1001.90 1001.82 1001.42 1001.10 1000.86 1000.62 1000.38 1000.14 999.98 999.82 999.58 999.42 999.34 999.34 999.38 999.26 999.06 999.02 999.06 999.02 999.06 999.30 999.50 999.58 999.54 999.46 999.38 999.46 999.66
1012.98 1012.94 1012.70 1012.58 1012.34 1012.22 1012.10 1012.10 1011.90 1011.90 1011.70 1011.38 1010.90 1010.34 1009.66 1009.06 1008.58 1008.10 1007.58 1007.26 1006.94 1006.62 1006.22 1005.86 1005.46 1005.02 1004.54 1004.02 1003.74 1003.54 1003.38 1003.14 1002.82 1002.42 1002.02 1001.74 1001.62 1001.42 1001.22 1001.10 1000.94 1000.74 1000.42 1000.18 1000.06 1000.10 1000.10 1000.06 999.94 999.82 999.66 999.54 999.34 999.10 999.14 999.38 999.54 999.62 999.66 999.62 999.82 1000.02
1013.06 1013.14 1013.02 1012.90 1012.82 1012.58 1012.42 1012.30 1012.10 1012.14 1011.94 1011.58 1011.18 1010.62 1009.90 1009.42 1008.90 1008.46 1008.02 1007.66 1007.34 1007.06 1006.78 1006.50 1006.10 1005.74 1005.34 1004.86 1004.50 1004.18 1003.94 1003.74 1003.42 1003.10 1002.86 1002.78 1002.78 1002.66 1002.46 1002.22 1001.90 1001.50 1001.10 1000.86 1000.74 1000.70 1000.62 1000.58 1000.42 1000.26 1000.10 999.98 999.94 999.82 999.66 999.58 999.82 1000.14 1000.22 1000.22 1000.26 1000.34
1013.26 1013.34 1013.30 1013.18 1013.14 1013.02 1012.78 1012.54 1012.34 1012.30 1012.02 1011.74 1011.34 1010.82 1010.26 1009.74 1009.26 1008.82 1008.46 1008.18 1007.90 1007.54 1007.26 1006.94 1006.58 1006.18 1005.82 1005.54 1005.26 1004.94 1004.66 1004.30 1003.98 1003.66 1003.50 1003.38 1003.30 1003.26 1003.18 1002.98 1002.74 1002.50 1002.18 1001.90 1001.66 1001.38 1001.30 1001.26 1001.10 1000.90 1000.66 1000.46 1000.34 1000.34 1000.34 1000.50 1000.54 1000.50 1000.82 1001.26 1001.54 1001.66
Wind_Speed
4 4 5 2 2 2 2 2 1 1 1 2 4 6 7 6 5 4 4 5 5 5 7 7 7 7 7 7 8 7 8 10 9 10 10 9 9 9 9 7 8 9 10 11 12 12 13 12 12 12 12 12 11 11 12 12 12 11 11 11 11 12
4 3 3 4 5 5 3 1 0 1 3 4 5 5 5 5 6 5 6 6 5 6 5 6 6 7 7 8 8 8 9 10 9 10 9 11 8 8 8 8 9 8 9 9 10 10 10 11 11 12 12 12 13 12 12 11 12 13 13 12 11 10
7 6 5 3 2 1 1 1 3 4 4 4 5 5 6 6 7 5 6 5 5 5 7 8 6 7 7 7 8 9 9 9 9 9 9 7 9 7 8 9 10 10 9 9 10 11 11 12 12 12 12 13 13 12 12 11 12 14 13 12 13 12
6 6 5 3 1 1 2 4 4 5 5 5 5 5 6 7 7 6 6 5 5 6 7 7 6 7 6 7 7 9 9 9 9 9 7 8 9 7 10 10 9 9 10 10 11 11 12 12 13 13 12 13 13 13 11 12 13 14 14 13 14 14
4 4 4 3 3 4 4 5 5 5 6 5 6 6 8 7 8 6 5 5 6 7 7 6 6 5 6 7 7 8 9 8 8 6 7 8 8 7 9 9 8 9 8 9 9 10 11 12 12 11 12 12 13 14 13 13 14 15 14 14 16 15
2 3 4 5 4 5 5 6 6 6 6 6 6 7 9 8 7 7 6 6 7 7 6 6 6 6 6 7 8 8 8 8 8 6 8 8 7 9 8 8 8 8 8 9 9 10 11 11 11 11 12 14 14 14 15 14 14 14 15 15 15 14
5 5 5 5 5 5 5 6 6 6 7 6 8 9 9 8 7 6 7 6 8 7 7 7 6 6 7 8 7 8 8 8 8 7 8 8 8 8 8 8 7 8 9 10 11 11 11 11 11 11 12 12 12 13 14 14 14 14 15 15 14 14
10 10 10 9 9 8 7 6 6 6 7 8 8 9 8 9 7 6 7 7 7 8 8 8 6 7 8 8 7 8 8 8 8 8 7 7 9 8 8 8 8 9 10 10 10 10 10 10 11 12 12 12 12 12 13 13 14 14 14 14 13 13
21 19 16 13 11 9 8 8 8 8 7 8 8 8 9 8 6 6 6 7 7 8 8 7 8 8 7 7 8 7 7 8 8 8 8 7 8 8 8 8 9 8 9 10 9 10 11 11 11 11 12 12 12 12 12 13 13 13 13 13 13 13
21 19 18 17 15 14 11 9 8 8 7 9 8 6 6 6 5 6 7 7 8 8 10 8 8 8 8 7 6 7 7 7 8 8 8 7 8 9 9 9 9 8 7 9 10 11 10 10 11 11 12 12 12 12 13 13 13 13 12 12 12 12
17 17 15 14 13 13 14 13 11 7 6 5 5 5 6 6 6 7 8 8 9 10 9 8 7 7 7 7 6 7 7 8 8 8 8 7 7 8 8 7 8 8 9 9 9 10 9 10 11 11 12 13 13 13 13 13 13 13 12 12 11 11
17 17 17 14 12 12 11 10 8 7 6 6 5 5 6 5 7 8 9 9 10 10 8 8 6 6 7 6 7 8 8 8 8 8 8 8 8 8 7 7 7 8 9 10 10 10 10 11 10 12 18 16 12 12 11 10 11 11 11 11 10 9
15 14 14 15 14 11 10 8 7 5 6 6 6 6 5 6 7 9 8 9 9 9 7 6 7 7 7 8 7 7 8 9 8 7 7 7 7 8 7 7 9 9 8 9 10 11 11 11 10 15 16 18 19 13 11 11 11 10 10 10 11 11
14 12 12 12 11 10 6 5 5 5 6 6 7 8 7 8 8 8 8 9 9 7 7 6 6 6 7 7 8 9 9 8 7 7 7 6 7 7 6 8 10 9 10 10 9 10 11 12 15 15 14 16 17 16 12 10 10 10 10 10 11 11
4 5 5 5 6 6 7 8 7 7 6 6 6 6 7 8 9 10 10 9 8 8 7 6 6 6 7 8 9 8 7 7 7 7 7 8 7 5 7 10 8 10 9 9 11 12 12 11 15 16 16 14 14 16 15 11 11 10 10 10 10 10
9 8 7 7 7 6 7 7 7 7 5 5 6 6 7 7 9 8 9 9 10 9 7 5 6 7 9 8 7 6 7 7 9 8 7 6 5 6 8 7 9 9 9 10 11 12 12 12 14 16 17 16 15 15 13 10 10 10 10 10 10 10
7 8 9 8 8 7 8 9 8 10 11 11 10 8 8 7 7 8 8 9 9 7 6 6 6 7 8 8 7 7 8 9 9 8 8 7 8 9 10 9 9 10 9 9 10 11 13 13 15 14 17 18 18 16 13 9 8 8 9 10 10 11
6 6 7 7 7 8 6 6 7 8 9 11 11 10 8 7 8 8 7 7 8 8 7 6 6 7 8 8 7 8 9 9 10 11 9 8 8 8 6 7 7 9 9 9 9 11 14 15 16 16 17 17 17 16 11 11 10 11 10 10 10 11
8 7 7 7 8 9 9 10 10 9 9 10 10 10 10 9 10 9 9 8 7 7 7 7 8 8 9 8 8 9 9 10 10 10 6 7 8 9 8 9 8 9 9 9 9 11 14 13 13 15 16 17 17 13 11 11 11 11 12 11 10 9
9 9 10 10 10 9 10 11 11 11 10 10 9 9 9 9 8 8 10 11 12 11 10 8 8 8 9 8 9 10 10 9 8 9 6 8 9 10 10 9 8 8 9 10 11 12 12 13 11 13 16 17 17 16 12 11 11 11 10 8 7 8
9 8 9 9 9 11 11 11 11 10 10 10 9 8 8 6 8 11 11 12 12 12 11 11 10 9 9 10 10 9 9 9 9 8 6 7 8 10 8 7 8 9 8 9 11 12 13 12 10 12 14 16 16 15 11 9 9 10 10 9 8 5
8 8 8 9 9 11 11 10 9 8 9 9 9 10 9 10 11 11 11 11 11 10 10 9 10 10 10 10 11 9 9 8 8 7 7 7 7 8 8 8 8 9 9 8 9 9 10 11 9 9 14 15 16 18 12 7 9 11 11 8 8 7
6 7 7 7 8 9 9 8 9 8 7 8 8 9 10 12 13 13 12 11 11 11 11 10 9 11 12 9 10 10 9 8 8 7 6 7 7 6 8 8 7 8 9 7 6 8 8 9 9 8 15 15 16 16 15 7 10 7 6 6 6 6
7 8 7 7 8 8 7 8 7 8 9 8 8 10 12 12 12 11 12 12 11 11 11 11 11 9 10 10 9 10 11 7 6 6 6 7 6 7 8 7 7 7 8 6 5 6 7 7 8 5 11 14 13 14 14 7 6 5 7 7 7 6
8 8 9 8 9 9 9 10 9 9 10 10 12 12 12 13 13 12 12 11 10 9 9 9 10 10 8 9 8 8 10 8 6 7 6 6 6 7 8 8 6 6 7 5 3 1 1 1 0 5 7 11 11 11 10 4 2 6 6 8 8 8
8 8 8 8 9 10 10 11 10 10 11 12 13 13 13 12 13 13 12 11 11 10 8 7 8 8 8 8 8 7 8 8 7 6 6 5 6 6 7 7 5 5 6 6 3 1 1 2 3 1 3 6 10 8 4 3 4 6 5 5 6 5
9 9 10 8 10 10 10 10 10 11 11 13 13 13 14 14 13 12 12 12 11 10 8 6 6 8 6 7 7 7 7 7 6 7 5 4 4 5 6 7 4 6 6 4 4 1 1 2 4 3 2 1 4 7 6 3 5 7 9 5 5 7
7 8 10 10 10 11 10 10 10 12 12 13 13 14 14 13 12 11 11 9 9 10 9 6 6 6 6 8 8 8 8 9 8 7 6 6 5 5 5 6 5 5 4 3 2 1 3 4 4 4 3 2 1 1 5 5 7 8 7 7 6 9
9 9 11 11 11 11 11 10 10 10 12 13 13 13 13 13 11 11 9 8 9 8 8 7 6 6 6 8 7 7 7 8 8 7 7 7 7 7 6 6 4 3 3 3 3 4 4 4 4 4 4 3 4 3 4 7 8 11 12 9 8 10
7 9 10 10 10 11 11 10 11 11 12 12 12 13 13 12 12 11 9 10 8 8 9 7 8 7 5 7 7 7 8 7 6 6 7 7 6 6 6 6 4 2 3 3 4 4 5 5 4 4 3 4 4 4 4 4 6 6 6 7 6 7
7 7 8 8 9 10 10 10 10 10 12 12 12 12 12 12 14 12 10 10 9 9 9 7 7 6 5 5 6 6 7 7 7 7 5 6 5 3 4 1 4 5 3 4 3 5 5 4 4 3 5 4 4 3 4 5 6 7 7 8 11 9
5 5 6 7 8 9 10 10 11 10 10 11 11 11 11 12 12 11 11 10 9 9 9 8 7 6 5 4 4 4 4 10 14 10 6 5 10 13 12 7 4 2 3 7 6 3 5 5 5 10 12 10 10 10 10 9 10 11 10 12 13 8
6 5 5 8 8 8 9 10 10 11 12 12 12 11 10 11 10 9 9 11 10 11 10 8 8 7 5 4 3 3 4 4 6 14 17 14 12 14 15 15 15 13 10 9 9 10 16 14 15 15 14 13 12 11 11 12 13 12 12 11 9 7
8 8 8 9 8 8 9 9 9 10 12 12 12 12 10 10 9 8 9 9 10 11 10 9 8 8 7 7 5 4 3 3 4 5 11 16 17 17 18 17 16 14 13 12 11 10 8 12 13 14 13 13 13 11 10 10 11 10 9 8 8 8
9 8 8 8 9 9 8 8 9 9 11 12 12 12 11 11 9 9 8 9 10 9 10 9 9 8 8 8 9 8 7 5 3 3 4 5 11 16 19 18 17 15 14 13 12 10 9 8 9 13 13 14 13 13 12 11 10 9 8 8 6 7
7 8 9 9 9 9 8 8 9 11 12 11 12 11 10 11 10 9 7 8 9 9 8 9 9 9 8 7 7 6 6 6 6 5 4 3 4 6 9 13 17 16 14 14 14 12 10 9 9 8 8 8 10 13 13 11 8 10 8 7 5 5
7 7 9 10 9 9 9 8 8 10 10 11 12 11 10 10 10 9 10 14 11 7 7 7 7 8 8 8 7 7 7 7 7 6 7 7 6 5 5 6 8 12 17 11 9 11 12 10 9 8 8 8 7 9 11 11 7 6 5 6 5 6
6 7 8 8 8 8 8 8 9 10 10 11 12 11 10 10 9 9 9 9 11 9 8 8 7 7 7 7 7 7 6 6 6 7 6 6 5 6 6 6 7 7 10 16 16 15 13 13 13 13 12 10 9 8 6 4 4 6 6 6 5 5
Wind_Direction
247 245 254 277 258 250 256 286 315 303 255 234 227 244 249 255 258 254 255 236 234 234 239 240 243 242 244 245 246 245 245 246 243 243 242 245 240 237 236 229 225 217 214 212 211 206 206 202 201 197 200 201 207 208 211 210 209 214 216 216 213 217
271 307 348 28 46 54 50 36 8 288 259 266 274 281 288 287 279 271 265 255 246 253 250 248 240 240 239 240 242 245 244 245 243 244 246 243 240 238 236 234 232 224 218 212 209 205 200 199 198 195 198 200 207 206 210 209 207 213 217 218 215 216
34 39 40 39 25 43 324 274 262 259 269 274 268 266 276 275 271 264 258 257 254 249 250 249 244 244 239 243 240 243 245 245 242 243 243 244 241 238 238 238 234 227 217 208 203 200 198 199 200 198 200 203 206 207 208 206 207 213 218 217 218 216
15 10 2 1 350 282 273 263 257 266 262 251 257 259 258 263 269 261 259 253 246 243 246 249 246 243 241 242 245 244 248 247 248 246 249 246 249 239 242 238 231 221 213 208 207 205 203 204 204 202 201 204 205 207 205 206 208 214 217 215 220 218
355 346 334 325 296 262 248 256 253 254 253 251 248 242 252 243 248 255 251 254 253 250 247 249 250 246 247 248 249 250 251 252 255 253 252 254 254 243 239 237 230 226 220 218 215 211 211 209 208 206 205 207 205 206 207 208 209 212 214 216 219 219
303 302 287 274 261 253 245 238 241 244 246 245 241 237 243 248 243 247 251 251 253 252 253 251 251 251 248 246 247 248 251 249 251 247 248 250 246 246 242 236 231 225 221 221 219 215 215 214 212 208 208 209 207 208 210 210 212 213 216 218 219 217
302 284 269 266 266 259 247 240 235 232 236 232 230 234 237 240 241 240 246 248 254 257 253 256 251 250 250 247 248 248 249 247 247 241 242 247 248 245 242 239 224 221 217 218 218 217 217 216 214 213 213 213 210 210 210 211 212 215 216 218 219 217
291 294 296 293 292 289 280 272 257 243 237 235 227 232 238 238 236 231 238 243 247 254 254 256 259 254 252 250 248 245 245 246 245 245 242 235 245 247 240 234 226 221 223 221 220 218 218 215 214 215 216 215 214 213 212 211 212 215 216 217 218 218
307 307 304 299 295 283 275 267 262 263 255 247 237 231 234 239 233 233 232 239 238 248 250 251 252 253 255 249 246 244 242 242 244 244 245 235 237 241 241 237 231 225 221 223 219 218 216 214 213 214 215 215 216 216 214 214 214 215 216 218 218 218
298 297 297 297 295 293 286 275 271 264 260 265 263 252 248 252 244 242 240 240 243 240 246 243 246 253 251 251 247 241 238 240 243 243 246 243 241 237 233 232 230 233 224 225 220 221 216 214 214 214 214 214 214 214 216 215 215 217 219 220 219 218
277 280 280 281 285 287 289 292 293 285 276 269 267 268 254 249 245 247 245 244 242 243 239 240 244 247 249 244 241 242 240 238 239 241 241 239 244 243 240 236 235 235 233 230 225 224 218 217 219 216 213 214 215 215 215 215 215 216 218 220 219 218
259 265 274 274 269 271 272 273 276 281 283 281 272 259 262 258 250 244 246 244 242 244 241 239 243 244 245 247 243 242 241 239 237 235 238 237 235 242 243 245 243 238 234 231 231 228 224 225 225 222 218 214 214 213 216 214 214 214 215 216 216 217
250 251 259 270 272 263 261 261 268 278 290 290 288 274 244 222 227 227 230 240 245 247 245 241 241 238 243 246 250 252 249 245 239 235 237 238 235 237 240 238 244 240 239 235 230 227 227 228 228 225 218 216 212 209 212 212 214 212 212 213 214 219
246 242 248 256 268 279 276 276 284 297 288 284 290 292 303 306 295 276 260 252 256 256 251 246 245 245 250 252 249 249 248 250 247 244 241 241 241 239 235 237 237 241 240 240 241 236 231 231 229 225 222 217 213 207 208 211 213 211 214 215 216 220
284 276 281 286 288 300 308 306 303 292 286 297 285 292 295 287 280 279 277 275 269 267 263 262 256 251 254 251 249 252 258 256 258 256 252 245 241 231 229 236 235 239 240 239 241 242 240 240 234 226 224 216 213 211 204 208 208 208 214 213 214 215
292 287 284 291 303 315 320 328 328 319 308 293 298 299 288 285 284 277 271 272 273 274 277 269 256 255 253 254 258 262 267 265 257 255 250 255 247 231 243 241 237 241 238 236 240 245 245 242 239 226 226 220 211 207 205 209 204 207 209 211 211 211
341 350 355 356 347 342 348 341 338 330 325 323 316 308 303 297 288 284 279 276 278 286 293 282 261 259 263 265 263 261 259 256 261 259 250 233 235 236 237 239 239 240 239 241 241 248 250 247 240 226 225 221 214 209 203 214 210 208 211 210 208 209
3 357 343 336 345 340 343 338 337 338 326 324 320 320 318 316 311 303 299 293 291 292 288 277 272 267 268 268 267 263 261 261 255 256 248 228 236 235 234 245 231 242 240 237 237 241 250 250 237 226 226 224 220 208 206 214 215 216 219 217 211 210
355 346 338 342 353 358 357 349 347 339 327 322 320 325 326 326 320 315 311 305 301 297 295 291 284 281 276 272 270 263 260 260 263 260 251 249 249 247 236 239 231 229 234 236 232 236 248 256 242 230 227 222 219 210 216 212 215 218 217 217 208 203
351 354 357 355 356 6 1 354 348 340 330 325 326 327 325 322 316 332 340 337 337 335 330 318 302 292 286 282 270 265 264 260 261 263 244 236 250 251 244 241 242 237 228 230 233 226 240 250 240 222 223 219 214 211 218 212 208 214 211 210 201 198
351 342 351 357 1 2 357 349 343 339 329 325 327 326 320 330 349 342 330 321 317 318 318 316 313 302 293 288 281 273 272 265 259 261 253 242 244 252 254 237 238 247 234 229 234 227 229 244 237 213 217 215 213 209 217 211 203 206 208 196 197 192
345 356 4 360 10 354 354 347 343 339 327 328 332 332 340 343 334 324 315 311 312 311 309 305 304 299 294 289 288 285 274 273 276 270 264 256 244 257 255 246 242 249 250 233 230 232 228 238 235 202 210 211 210 207 208 210 205 208 204 190 182 176
344 352 6 355 11 360 347 344 344 335 334 335 334 335 336 332 324 317 314 312 312 314 313 312 307 303 300 295 293 293 287 280 279 281 272 266 263 255 259 253 250 251 256 243 227 231 228 227 234 205 198 207 209 207 205 203 214 212 184 182 179 191
351 350 358 355 9 353 348 346 344 336 339 336 334 330 328 319 312 308 309 311 312 313 313 311 308 303 300 301 302 299 292 291 291 280 276 270 264 260 258 259 252 253 260 255 234 231 232 229 229 203 194 201 204 206 209 208 212 187 167 172 188 183
354 352 350 348 358 353 354 354 351 347 344 339 332 329 322 315 313 309 307 303 301 302 304 305 306 307 306 304 303 297 294 299 303 291 286 278 269 262 263 260 258 256 263 260 252 280 276 335 311 183 189 190 195 205 216 230 219 172 164 179 189 188
356 355 350 346 359 354 356 359 353 349 343 336 334 326 318 315 313 311 307 302 300 302 305 307 309 309 306 307 310 309 306 309 306 300 292 277 266 271 270 270 265 257 258 255 259 305 8 11 22 353 181 180 174 184 153 80 134 145 153 154 158 143
357 354 350 350 2 357 353 356 353 344 344 337 331 325 323 318 312 307 303 302 302 305 307 316 322 320 319 322 325 327 321 318 322 314 306 302 288 277 273 275 267 248 249 247 236 244 29 33 42 32 20 127 167 170 166 149 134 138 130 120 140 139
7 2 353 346 357 359 351 353 355 351 341 333 330 326 319 312 307 304 304 307 311 310 314 330 335 335 345 358 353 353 346 338 325 314 316 324 306 288 280 289 279 262 249 240 203 103 72 62 67 62 55 30 353 217 177 149 127 110 101 100 113 122
7 2 356 346 352 357 348 350 349 348 340 335 331 325 317 308 300 305 314 332 326 326 328 341 348 4 22 16 7 2 360 355 357 4 8 1 354 341 319 294 275 258 241 198 120 95 84 75 71 76 76 62 68 41 66 85 88 94 92 90 100 101
8 3 358 350 350 352 344 343 344 347 342 336 333 326 321 316 321 319 333 339 338 338 337 342 356 11 35 34 25 20 6 4 1 18 16 359 338 327 323 321 303 272 216 139 116 107 96 92 83 76 86 89 95 89 78 85 92 94 108 108 104 103
1 1 2 350 353 347 341 342 341 345 343 338 333 331 328 328 328 326 340 343 344 345 340 346 353 4 31 47 44 39 30 15 16 16 10 1 337 310 282 308 41 9 35 87 111 127 105 86 84 85 98 100 100 115 116 114 112 112 104 108 113 107
353 351 356 355 356 350 342 342 343 343 341 339 333 334 335 334 335 345 349 348 347 349 345 348 349 359 15 30 34 22 21 33 38 35 24 348 8 25 37 54 58 43 87 81 40 44 109 109 108 98 89 86 83 83 89 94 102 110 115 118 115 113
345 344 355 360 359 351 346 342 345 345 342 341 338 334 333 339 343 345 347 351 345 347 347 347 348 347 355 13 32 35 26 6 14 31 34 38 36 41 45 53 62 68 72 95 97 86 94 101 100 93 92 89 84 85 90 99 103 103 105 108 109 96
349 354 355 356 353 349 345 342 344 350 343 341 336 334 332 342 348 346 349 350 343 342 348 347 347 348 352 350 355 7 14 9 3 2 28 32 38 42 46 50 55 63 72 80 96 105 93 99 100 99 99 100 100 95 93 94 96 95 91 98 103 99
345 344 351 351 350 349 346 343 344 348 345 344 340 333 336 341 346 342 347 351 348 345 346 348 350 351 354 353 357 357 357 353 357 3 343 14 32 36 39 40 43 49 56 64 66 76 99 111 116 120 119 119 116 114 110 107 102 94 91 87 87 112
347 341 346 348 346 346 346 345 347 351 344 344 340 339 339 343 341 340 346 353 346 348 349 353 351 350 351 352 355 350 352 349 348 337 337 350 2 16 27 29 31 34 44 53 58 63 60 63 74 79 93 107 118 122 125 124 117 108 88 94 107 99
353 348 344 347 344 341 345 343 349 348 342 342 341 337 342 347 346 345 345 351 355 352 348 345 346 348 350 353 355 356 357 357 350 358 5 6 4 4 12 8 13 19 30 39 47 54 55 61 66 79 87 91 101 113 116 113 104 91 66 61 65 86
356 352 346 346 341 340 339 341 349 345 342 341 339 338 342 347 350 352 352 351 351 351 349 347 345 345 349 353 351 352 355 354 359 7 12 13 15 12 7 4 9 6 17 28 30 39 53 48 47 48 51 58 63 59 51 62 68 80 76 70 50 53